PBD6512 USPP-UUEE

Flight info

Callsign PBD6512
Flight time N/A
Altitude 36000
Route K0817F360 GEBS1L GEBSI M60 BAPTA P874 BAPUN N181 GOBOM T187 ROMTA ROMT3E
Aircraft B738/M-VGDW/C

Departure

Time 2026-05-06 18:58
Airport Perm International Airport (USPP)

Arrival

Time N/A
Airport Sheremetyevo International Airport (UUEE)
Time Latitude Longitude Altitude Speed Heading
2026-05-06 18:29 57.91879 56.02034 396 ft 0 kts 316°
2026-05-06 18:48 57.91871 56.02049 395 ft 4 kts 319°
2026-05-06 18:48 57.91852 56.02083 393 ft 4 kts 301°
2026-05-06 18:48 57.91850 56.02124 396 ft 4 kts 241°
2026-05-06 18:48 57.91863 56.02159 393 ft 1 kts 228°
2026-05-06 18:49 57.91863 56.02160 393 ft 1 kts 228°
2026-05-06 18:52 57.91862 56.02159 393 ft 0 kts 221°
2026-05-06 18:52 57.91859 56.02162 393 ft 1 kts 173°
2026-05-06 18:52 57.91834 56.02197 396 ft 9 kts 138°
2026-05-06 18:52 57.91781 56.02291 396 ft 11 kts 136°
2026-05-06 18:53 57.91727 56.02388 394 ft 11 kts 136°
2026-05-06 18:53 57.91678 56.02488 394 ft 10 kts 118°
2026-05-06 18:53 57.91695 56.02608 399 ft 10 kts 52°
2026-05-06 18:53 57.91755 56.02726 400 ft 17 kts 45°
2026-05-06 18:54 57.91846 56.02901 399 ft 19 kts 46°
2026-05-06 18:54 57.91935 56.03075 396 ft 18 kts 45°
2026-05-06 18:54 57.92022 56.03242 398 ft 18 kts 47°
2026-05-06 18:54 57.92106 56.03404 402 ft 17 kts 46°
2026-05-06 18:55 57.92186 56.03561 402 ft 16 kts 46°
2026-05-06 18:55 57.92264 56.03711 402 ft 16 kts 45°
2026-05-06 18:55 57.92338 56.03857 401 ft 15 kts 49°
2026-05-06 18:55 57.92381 56.03956 401 ft 9 kts 52°
2026-05-06 18:56 57.92405 56.04032 401 ft 6 kts 59°
2026-05-06 18:56 57.92437 56.04043 401 ft 2 kts 321°
2026-05-06 18:56 57.92433 56.04016 401 ft 2 kts 221°
2026-05-06 18:56 57.92416 56.03999 401 ft 3 kts 212°
2026-05-06 18:57 57.92401 56.03976 401 ft 3 kts 223°
2026-05-06 18:57 57.92389 56.03953 401 ft 0 kts 226°
2026-05-06 18:57 57.92379 56.03933 401 ft 17 kts 226°
2026-05-06 18:58 57.92107 56.03408 402 ft 94 kts 225°
2026-05-06 18:58 57.91492 56.02219 399 ft 157 kts 227°
2026-05-06 18:58 57.90667 56.00617 921 ft 172 kts 228°
2026-05-06 18:58 57.89901 55.99066 2086 ft 149 kts 230°
2026-05-06 18:59 57.89176 55.97658 2794 ft 156 kts 229°
2026-05-06 18:59 57.88406 55.96185 3466 ft 159 kts 229°
2026-05-06 18:59 57.87595 55.94626 3882 ft 182 kts 229°
2026-05-06 18:59 57.86657 55.92818 4146 ft 203 kts 229°
2026-05-06 19:00 57.85666 55.90905 4604 ft 210 kts 231°
2026-05-06 19:00 57.84966 55.88413 4804 ft 229 kts 261°
2026-05-06 19:00 57.85147 55.85344 5191 ft 249 kts 292°
2026-05-06 19:00 57.85818 55.83518 5668 ft 257 kts 314°
2026-05-06 19:01 57.88059 55.81945 6720 ft 272 kts 351°
2026-05-06 19:01 57.89940 55.81449 7422 ft 273 kts 341°
2026-05-06 19:01 57.91708 55.80182 8149 ft 271 kts 325°
2026-05-06 19:01 57.93097 55.77871 8915 ft 266 kts 305°
2026-05-06 19:02 57.94278 55.75156 9676 ft 271 kts 307°
2026-05-06 19:02 57.95561 55.72484 10172 ft 284 kts 309°